CZ-6A DEB, 54610

Orbit data source: Space-Track

CZ-6A DEB, 54610 is space debris in SSO originally from a launch on Fri, 11 Nov 2022 UTC launched from the Taiyaun Space Center, China (TSC). Debris objects in space refer to the collection of defunct objects orbiting the Earth. Examples of debris include non-operational satellites, rocket bodies, and fragments generated from explosions, collisions, or faulty payload assembly.

Loading next visibility...
Identifier
54610, 2022-151NL
Orbit
SSO
Country
Flag of CNCN / PRC
Related business
Manufacturer
SAST
Mission
Spacecraft
Bus & Motor
Unknown
Mass
Unknown
Launch date (UTC)
2022-11-11 (4 years ago)
Launch vehicle
Unknown
Launch site
Taiyaun Space Center, China (TSC)
Object type
Payload
Rocket body
Debris
Shape & HBR
Unknown shape, 0.1 m
Radar Cross Section
Medium (>0.1 m² and <1 m²)

Expand to show TLE details & history
Last TLE update: 2 days ago

TLE from 2 days ago
0 CZ-6A DEB
1 54610U 22151NL  26171.09070848  .00005825  00000-0  11296-2 0  9991
2 54610  98.6323 226.0574 0066705 318.9415  40.6774 14.62234259117566
Epoch: 2026-06-20T02:10Z
TLE epoch observation values (Epoch: 2026-06-20T02:10:37.212Z)
Latitude
-0.00011°
Longitude
-74.90795°
Altitude
653.335 km
Speed
7.55 km/s
True Right ascension
15h 04m 13s
True Declination
0° 00' 00"
Sunlit
Object was in full shadow at epoch
Visualization orbit readout
Latitude
Unknown
Longitude
Unknown
Altitude
Unknown
Speed
Unknown
Apparent Right ascension
Unknown
Apparent Declination
Unknown
Sunlit
N/A
Visualization observer readout
Local Sidereal Time
21:57:38
Azimuth
Unknown
Elevation
Unknown
Doppler factor
Unknown
Orbital elements
Apogee altitude
730.169 km
Perigee altitude
635.966 km
Semi-major axis
7,061.204 km
Eccentricity
0.00667
Inclination
98.6323°
RAAN
226.0574°
Arg. of periapsis
318.9415°
True anomaly
41.17879°
Mean anomaly
40.6774°
Eccentric anomaly
40.92778°
Mean motion
3.65784 °/min
Orbital period
98.42 mins
BSTAR
0.0011296
Loading maneuver chart data...
Computing Atmospheric mass density...
Loading historical data...
Loading historical data...
Loading historical data...
Loading historical data...
Loading historical data...
Loading historical data...
Loading historical data...

Documentation

Showing up to 5 results
|